WZZ1752 EFTU-EPGD

Flight info

Callsign WZZ1752
Flight time 1h 18m
Altitude 36000
Route EMPOM DCT NISIX DCT PENOR/N0447F370 N133 DOMAG T240 OGDAV
Aircraft A320/M-SDE3FGHIRWY/LB1

Departure

Time 2026-05-04 09:58
Airport Turku Airport (EFTU)

Arrival

Time 2026-05-04 11:16
Airport Gdańsk Lech Wałęsa Airport (EPGD)
Time Latitude Longitude Altitude Speed Heading
2026-05-04 09:30 60.51181 22.27336 175 ft 0 kts 150°
2026-05-04 09:51 60.51247 22.27251 174 ft 4 kts 52°
2026-05-04 09:51 60.51246 22.27247 174 ft 1 kts 29°
2026-05-04 09:54 60.51277 22.27282 173 ft 9 kts 29°
2026-05-04 09:54 60.51328 22.27351 170 ft 8 kts 49°
2026-05-04 09:54 60.51343 22.27493 167 ft 13 kts 86°
2026-05-04 09:54 60.51351 22.27681 164 ft 14 kts 84°
2026-05-04 09:55 60.51359 22.27880 162 ft 14 kts 84°
2026-05-04 09:55 60.51369 22.28093 156 ft 16 kts 85°
2026-05-04 09:55 60.51379 22.28323 151 ft 14 kts 85°
2026-05-04 09:55 60.51385 22.28475 149 ft 10 kts 84°
2026-05-04 09:56 60.51439 22.28542 148 ft 9 kts
2026-05-04 09:56 60.51483 22.28528 150 ft 4 kts 352°
2026-05-04 09:56 60.51501 22.28522 150 ft 3 kts 344°
2026-05-04 09:56 60.51512 22.28482 151 ft 4 kts 275°
2026-05-04 09:57 60.51509 22.28451 151 ft 1 kts 262°
2026-05-04 09:57 60.51500 22.28295 152 ft 36 kts 265°
2026-05-04 09:57 60.51457 22.27357 166 ft 95 kts 265°
2026-05-04 09:57 60.51385 22.25703 165 ft 139 kts 264°
2026-05-04 09:58 60.51289 22.23617 497 ft 148 kts 265°
2026-05-04 09:58 60.51208 22.21543 1081 ft 148 kts 263°
2026-05-04 09:58 60.51116 22.19460 1636 ft 149 kts 263°
2026-05-04 10:00 60.45437 22.04671 4750 ft 257 kts 217°
2026-05-04 10:00 60.43956 22.02594 5651 ft 260 kts 216°
2026-05-04 10:02 60.33167 21.87422 10478 ft 311 kts 217°
2026-05-04 10:04 60.19914 21.68969 14764 ft 340 kts 219°
2026-05-04 10:04 60.17999 21.66166 15357 ft 341 kts 220°
2026-05-04 10:04 60.16087 21.63319 15942 ft 343 kts 220°
2026-05-04 10:04 60.14164 21.60448 16537 ft 345 kts 220°
2026-05-04 10:05 60.12227 21.57574 17161 ft 347 kts 220°
2026-05-04 10:05 60.10276 21.54697 17774 ft 349 kts 220°
2026-05-04 10:05 60.08308 21.51804 18338 ft 352 kts 220°
2026-05-04 10:05 60.06333 21.48907 18886 ft 353 kts 220°
2026-05-04 10:06 60.04342 21.45993 19423 ft 355 kts 219°
2026-05-04 10:06 60.02338 21.43073 19996 ft 357 kts 219°
2026-05-04 10:06 60.00326 21.40154 20528 ft 359 kts 219°
2026-05-04 10:08 59.87997 21.22324 23482 ft 371 kts 218°
2026-05-04 10:08 59.85901 21.19306 23878 ft 373 kts 218°
2026-05-04 10:08 59.84508 21.17304 24121 ft 374 kts 218°
2026-05-04 10:08 59.82391 21.14265 24498 ft 376 kts 218°
2026-05-04 10:09 59.80269 21.11225 24876 ft 377 kts 218°
2026-05-04 10:09 59.78136 21.08174 25239 ft 379 kts 218°
2026-05-04 10:09 59.75995 21.05119 25606 ft 380 kts 218°
2026-05-04 10:09 59.73838 21.02044 25987 ft 382 kts 218°
2026-05-04 10:10 59.71675 20.98964 26358 ft 384 kts 218°
2026-05-04 10:10 59.69502 20.95880 26731 ft 386 kts 218°
2026-05-04 10:10 59.67314 20.92778 27095 ft 387 kts 218°
2026-05-04 10:10 59.65122 20.89668 27459 ft 389 kts 218°
2026-05-04 10:11 59.62915 20.86547 27817 ft 391 kts 218°
2026-05-04 10:11 59.60709 20.83434 28317 ft 389 kts 218°
2026-05-04 10:11 59.58512 20.80337 28848 ft 387 kts 218°
2026-05-04 10:11 59.56331 20.77267 29374 ft 385 kts 219°
2026-05-04 10:12 59.54157 20.74213 29881 ft 383 kts 219°
2026-05-04 10:12 59.51989 20.71176 30316 ft 381 kts 219°
2026-05-04 10:12 59.49830 20.68155 30719 ft 381 kts 219°
2026-05-04 10:12 59.47671 20.65138 31119 ft 380 kts 219°
2026-05-04 10:13 59.45517 20.62131 31526 ft 380 kts 219°
2026-05-04 10:13 59.43362 20.59125 31931 ft 380 kts 219°
2026-05-04 10:13 59.41211 20.56126 32329 ft 379 kts 219°
2026-05-04 10:13 59.39057 20.53135 32721 ft 379 kts 219°
2026-05-04 10:14 59.36902 20.50149 33121 ft 379 kts 219°
2026-05-04 10:14 59.34748 20.47171 33518 ft 379 kts 219°
2026-05-04 10:16 59.18327 20.29767 35439 ft 388 kts 211°
2026-05-04 10:16 59.15915 20.27388 35665 ft 390 kts 211°
2026-05-04 10:16 59.11021 20.22558 35736 ft 400 kts 211°
2026-05-04 10:17 59.06023 20.17657 35736 ft 404 kts 211°
2026-05-04 10:19 58.85889 19.98099 35738 ft 405 kts 211°
2026-05-04 10:19 58.80844 19.93229 35730 ft 406 kts 211°
2026-05-04 10:20 58.75791 19.88368 35733 ft 406 kts 211°
2026-05-04 10:20 58.70732 19.83527 35732 ft 406 kts 211°
2026-05-04 10:21 58.65670 19.78696 35736 ft 406 kts 211°
2026-05-04 10:21 58.60603 19.73877 35732 ft 407 kts 211°
2026-05-04 10:22 58.52988 19.66666 35736 ft 407 kts 211°
2026-05-04 10:23 58.47913 19.61872 35741 ft 407 kts 211°
2026-05-04 10:25 58.27553 19.42801 35750 ft 408 kts 210°
2026-05-04 10:25 58.22450 19.38067 35753 ft 408 kts 210°
2026-05-04 10:26 58.17349 19.33331 35755 ft 408 kts 210°
2026-05-04 10:26 58.12275 19.28643 35731 ft 402 kts 210°
2026-05-04 10:27 58.07229 19.24011 35732 ft 405 kts 210°
2026-05-04 10:27 58.02156 19.19363 35728 ft 406 kts 210°
2026-05-04 10:28 57.97066 19.14711 35722 ft 404 kts 210°
2026-05-04 10:28 57.91987 19.10084 35736 ft 407 kts 210°
2026-05-04 10:29 57.86871 19.05444 35745 ft 409 kts 210°
2026-05-04 10:29 57.81748 19.00802 35750 ft 409 kts 210°
2026-05-04 10:30 57.76620 18.96167 35756 ft 409 kts 210°
2026-05-04 10:30 57.71480 18.91542 35758 ft 410 kts 210°
2026-05-04 10:31 57.66337 18.86930 35764 ft 410 kts 210°
2026-05-04 10:32 57.48285 18.70864 35772 ft 412 kts 210°
2026-05-04 10:33 57.43107 18.66296 35776 ft 412 kts 210°
2026-05-04 10:33 57.37931 18.61727 35778 ft 412 kts 210°
2026-05-04 10:34 57.32751 18.57155 35785 ft 413 kts 210°
2026-05-04 10:34 57.27562 18.52601 35788 ft 413 kts 210°
2026-05-04 10:35 57.22359 18.48074 35783 ft 413 kts 210°
2026-05-04 10:35 57.17152 18.43543 35788 ft 414 kts 210°
2026-05-04 10:36 57.11947 18.39009 35789 ft 414 kts 210°
2026-05-04 10:36 57.06729 18.34487 35785 ft 415 kts 210°
2026-05-04 10:37 57.01498 18.29981 35791 ft 415 kts 210°
2026-05-04 10:37 56.96259 18.25494 35794 ft 416 kts 210°
2026-05-04 10:39 56.77891 18.09817 35806 ft 417 kts 210°
2026-05-04 10:40 56.72627 18.05353 35810 ft 417 kts 210°
2026-05-04 10:40 56.67356 18.00903 35808 ft 418 kts 210°
2026-05-04 10:41 56.62048 17.96439 35812 ft 418 kts 210°
2026-05-04 10:41 56.56800 17.92036 35817 ft 418 kts 210°
2026-05-04 10:42 56.51516 17.87613 35828 ft 419 kts 210°
2026-05-04 10:42 56.46227 17.83188 35819 ft 419 kts 210°
2026-05-04 10:43 56.40932 17.78773 35819 ft 419 kts 209°
2026-05-04 10:45 56.19692 17.61246 35832 ft 420 kts 209°
2026-05-04 10:45 56.14369 17.56883 35832 ft 421 kts 209°
2026-05-04 10:46 56.09037 17.52532 35836 ft 421 kts 209°
2026-05-04 10:46 56.03705 17.48181 35837 ft 422 kts 209°
2026-05-04 10:47 55.98362 17.43836 35842 ft 422 kts 209°
2026-05-04 10:47 55.93010 17.39506 35843 ft 422 kts 209°
2026-05-04 10:49 55.72453 17.23002 35858 ft 424 kts 208°
2026-05-04 10:50 55.66921 17.19289 36109 ft 431 kts 196°
2026-05-04 10:51 55.46475 17.30206 36881 ft 453 kts 159°
2026-05-04 10:52 55.43603 17.32514 36883 ft 453 kts 159°
2026-05-04 10:52 55.37856 17.37105 36773 ft 454 kts 159°
2026-05-04 10:54 55.17074 17.53582 30855 ft 476 kts 159°
2026-05-04 10:54 55.14076 17.55903 29704 ft 469 kts 159°
2026-05-04 10:56 54.94576 17.73761 25178 ft 447 kts 136°
2026-05-04 10:56 54.92442 17.77672 24559 ft 444 kts 136°
2026-05-04 10:56 54.90315 17.81552 23945 ft 442 kts 136°
2026-05-04 10:57 54.88201 17.85386 23444 ft 436 kts 136°
2026-05-04 10:57 54.86138 17.89122 23293 ft 421 kts 136°
2026-05-04 10:57 54.84142 17.92732 23148 ft 408 kts 136°
2026-05-04 10:57 54.82205 17.96230 23011 ft 396 kts 137°
2026-05-04 10:58 54.80303 17.99579 22866 ft 383 kts 141°
2026-05-04 10:58 54.78253 18.02387 22685 ft 371 kts 147°
2026-05-04 10:58 54.76203 18.05052 22258 ft 367 kts 147°
2026-05-04 10:58 54.74166 18.07698 21842 ft 365 kts 147°
2026-05-04 10:59 54.72146 18.10321 21357 ft 360 kts 147°
2026-05-04 10:59 54.70152 18.12913 20664 ft 357 kts 147°
2026-05-04 10:59 54.68183 18.15481 19973 ft 353 kts 146°
2026-05-04 10:59 54.66401 18.18408 19310 ft 353 kts 135°
2026-05-04 11:00 54.64774 18.21556 18703 ft 349 kts 136°
2026-05-04 11:01 54.53627 18.42830 15262 ft 334 kts 137°
2026-05-04 11:02 54.52072 18.45774 14879 ft 333 kts 137°
2026-05-04 11:02 54.50524 18.48701 14364 ft 328 kts 137°
2026-05-04 11:05 54.35844 18.90581 9577 ft 278 kts 117°
2026-05-04 11:06 54.35075 18.93625 9133 ft 276 kts 117°
2026-05-04 11:06 54.34320 18.96615 8665 ft 274 kts 116°
2026-05-04 11:06 54.33395 18.99408 8211 ft 264 kts 139°
2026-05-04 11:06 54.31914 19.01012 7846 ft 246 kts 169°
2026-05-04 11:08 54.26866 18.90301 5569 ft 199 kts 290°
2026-05-04 11:10 54.29901 18.78204 4011 ft 139 kts 287°
2026-05-04 11:12 54.32554 18.67560 2701 ft 139 kts 288°
2026-05-04 11:12 54.32933 18.66040 2507 ft 137 kts 288°
2026-05-04 11:12 54.33310 18.64526 2351 ft 139 kts 287°
2026-05-04 11:12 54.33691 18.63001 2159 ft 140 kts 288°
2026-05-04 11:13 54.34072 18.61470 1982 ft 138 kts 289°
2026-05-04 11:13 54.34448 18.59959 1797 ft 138 kts 288°
2026-05-04 11:13 54.34825 18.58443 1622 ft 138 kts 288°
2026-05-04 11:13 54.35198 18.56944 1448 ft 137 kts 288°
2026-05-04 11:14 54.35571 18.55444 1258 ft 137 kts 288°
2026-05-04 11:14 54.35949 18.53953 1126 ft 136 kts 289°
2026-05-04 11:14 54.36311 18.52466 909 ft 134 kts 289°
2026-05-04 11:16 54.37946 18.45936 455 ft 12 kts 308°
2026-05-04 11:16 54.38015 18.45824 455 ft 15 kts 320°
2026-05-04 11:16 54.38083 18.45732 455 ft 12 kts 323°
2026-05-04 11:17 54.38146 18.45745 454 ft 11 kts 70°
2026-05-04 11:17 54.38125 18.45872 457 ft 11 kts 110°
2026-05-04 11:19 54.38106 18.46461 458 ft 4 kts 100°
2026-05-04 11:19 54.38129 18.46491 460 ft 5 kts 24°
2026-05-04 11:19 54.38147 18.46504 459 ft 0 kts 23°